Wind_Speed
28 27 26 26 25 26 26 27 27 26 26 25 24 23 23 23 22 22 21 21 20 19 19 18 18 17 16 15 14 13 12 12 12 10 9 7 6 5 4 2 1 2 2 3 3 3 3 4 4 4 5 4 5 5 7 8 9 10 10 11 11 12 12 12 11 11 12 12 13 12 9 6 4 3 4 7 4 3 4 5 9 10 10 12 16 15 14 14
30 29 28 27 26 25 25 26 26 26 27 26 26 25 25 24 24 23 22 22 21 20 20 20 19 19 18 17 16 15 15 14 13 11 10 8 7 6 4 2 0 0 1 2 2 2 3 3 3 4 3 3 4 5 5 6 7 8 9 9 10 11 10 10 11 12 12 13 14 13 11 8 5 3 3 6 5 2 3 4 9 12 11 12 15 16 15 14
32 31 31 29 28 27 26 26 25 25 26 26 26 26 26 26 26 25 24 24 23 22 22 22 21 21 21 20 18 18 17 16 14 12 10 8 8 7 5 3 2 1 1 1 2 2 2 2 2 3 2 3 4 4 4 4 6 6 7 8 9 10 10 10 11 11 12 13 14 14 12 10 7 4 2 5 5 3 4 4 9 12 12 12 12 14 15 13
31 32 32 32 30 29 28 27 26 25 25 25 26 26 26 26 26 26 26 25 25 24 24 24 24 23 23 22 21 19 19 17 15 13 11 10 9 7 6 4 3 2 1 1 2 2 2 2 2 3 3 3 4 3 3 3 4 5 6 7 8 9 10 10 11 11 11 12 13 14 13 11 9 6 3 5 5 3 5 7 7 9 11 13 13 14 15 12
30 31 32 33 33 31 30 29 27 26 25 25 25 25 25 25 25 25 25 25 24 24 24 23 23 23 22 21 20 19 18 17 14 13 12 11 10 8 6 5 4 3 2 2 2 2 3 3 3 3 3 3 3 3 3 2 3 4 4 6 6 7 7 8 9 10 11 11 12 12 12 12 10 8 6 4 6 3 2 6 7 6 8 11 15 16 16 14
30 31 31 32 33 33 33 31 30 28 26 25 25 24 25 25 25 24 24 23 23 22 22 21 21 21 20 19 17 16 16 16 14 14 13 12 10 9 8 6 5 4 3 3 3 3 3 3 3 3 3 2 2 3 3 3 3 3 3 5 5 6 6 6 7 9 10 10 10 11 11 12 11 10 8 6 6 3 2 4 6 7 6 8 12 15 17 16
30 31 31 31 32 33 34 33 32 30 28 27 26 25 24 24 24 24 24 23 22 22 21 20 19 19 18 17 16 15 15 15 15 14 14 13 11 10 9 7 6 5 5 5 4 3 3 3 2 2 2 2 1 2 2 3 4 3 2 4 5 5 6 5 6 7 8 9 9 10 11 11 11 11 10 8 6 4 3 3 5 8 8 8 9 12 16 17
30 30 31 31 31 32 33 34 34 33 31 29 28 26 25 24 24 24 24 23 22 22 21 20 19 18 17 16 15 14 14 14 14 14 15 14 12 11 10 8 7 7 6 6 4 3 3 2 2 2 2 2 2 2 2 2 4 3 2 3 4 5 5 5 4 5 6 7 8 9 10 11 11 11 11 10 7 4 3 3 5 8 9 9 9 10 12 15
29 30 30 31 31 31 32 32 33 34 33 32 30 28 27 25 25 24 24 23 23 22 22 21 20 19 18 16 15 14 14 14 14 15 15 15 14 13 11 9 9 8 7 6 5 5 4 4 3 3 2 2 2 1 2 1 3 3 1 1 3 4 4 5 4 4 4 5 7 8 9 10 11 11 10 11 10 5 3 3 5 9 10 10 10 10 11 14
28 29 29 30 31 31 31 31 31 32 34 34 33 31 29 27 26 25 24 24 23 23 22 21 20 19 18 17 16 15 15 15 15 15 16 16 15 13 12 11 10 9 8 7 7 7 6 5 4 4 4 3 2 1 1 0 3 3 1 1 2 3 3 5 4 3 3 4 5 7 8 9 10 10 10 11 11 7 2 4 5 9 11 11 11 11 11 15
28 28 28 29 30 30 31 31 31 31 32 33 34 34 32 30 28 27 26 24 23 23 23 22 21 20 19 18 17 16 16 16 16 16 16 16 15 14 13 12 11 10 9 8 8 8 7 7 6 6 5 4 3 3 2 2 3 4 3 2 1 2 3 4 4 2 1 2 4 6 7 8 9 9 9 9 10 8 3 3 6 8 11 12 13 12 11 15
27 27 28 28 29 29 30 30 31 31 31 31 32 34 34 33 32 30 28 26 25 24 23 23 22 21 20 19 19 17 18 18 18 18 17 16 16 15 14 13 12 11 10 9 9 9 9 9 8 7 6 6 6 5 4 3 3 5 4 3 2 2 2 3 3 1 0 1 2 5 6 7 8 9 9 9 9 9 6 1 7 8 11 12 14 14 12 15
27 27 27 27 27 28 29 29 30 30 30 30 30 31 33 34 35 33 31 29 28 26 25 24 23 22 21 21 20 20 21 20 20 19 18 17 17 16 16 15 13 12 11 11 11 11 11 11 10 8 8 8 7 7 6 5 5 5 5 3 3 3 2 3 3 1 1 2 3 3 5 7 8 9 9 9 8 9 8 2 6 10 11 13 14 15 13 15
26 26 26 26 26 27 28 28 29 29 30 30 30 30 30 32 34 35 35 33 31 29 27 26 24 24 23 23 23 23 23 22 21 20 19 18 18 18 18 17 15 14 13 13 13 13 13 12 11 10 9 8 8 8 7 7 6 5 6 5 4 4 3 3 2 1 2 3 3 4 4 6 8 9 9 9 9 9 10 5 5 11 13 15 16 17 14 16
25 25 26 26 26 26 27 27 27 28 29 29 29 29 29 30 31 33 34 35 34 33 31 29 28 26 26 26 25 25 24 23 22 21 21 21 21 20 20 19 17 16 15 15 15 15 15 14 13 11 10 9 10 9 9 8 6 6 7 7 6 4 3 3 2 2 3 4 4 4 4 6 7 9 10 10 10 10 10 7 3 11 14 16 18 18 16 17
24 24 24 25 25 25 26 26 26 27 27 28 28 29 29 29 29 29 31 33 34 34 34 33 32 30 30 29 28 27 26 25 25 24 24 24 23 23 22 21 19 19 19 18 17 17 17 16 14 12 11 11 11 10 10 9 8 9 9 9 7 5 3 2 2 3 4 5 5 5 4 5 6 8 9 10 11 11 11 9 1 10 16 17 19 19 18 17
21 22 23 23 24 24 24 25 24 25 26 26 27 27 28 28 28 28 28 29 30 32 33 33 33 33 32 32 30 29 29 29 28 27 27 27 26 25 25 24 23 23 22 21 20 20 20 19 16 14 12 12 11 11 11 11 11 11 10 10 8 4 2 1 3 4 5 6 6 5 4 5 6 6 8 10 11 12 12 11 6 6 14 16 18 20 19 16
19 19 20 22 22 22 23 23 23 23 24 25 25 26 27 27 27 27 27 26 27 27 28 29 31 31 31 32 32 31 32 32 31 30 29 29 28 28 28 28 27 26 25 24 24 23 22 21 18 15 13 13 12 12 13 13 12 11 10 10 8 5 3 3 4 6 6 6 7 7 5 5 6 6 7 9 10 12 13 12 8 1 9 13 18 20 19 17
16 17 18 19 20 20 21 22 21 22 23 23 24 25 25 25 25 25 25 25 25 25 25 25 26 27 28 29 30 31 31 31 31 31 31 31 30 30 30 29 29 27 26 25 25 25 24 22 18 15 14 15 15 15 15 14 14 12 11 10 9 7 6 6 7 7 7 8 8 8 7 5 6 6 6 8 9 11 12 11 9 2 5 10 17 18 18 19
15 15 16 17 18 18 19 20 20 20 21 22 22 23 23 23 23 24 25 25 24 24 23 24 24 24 25 26 26 27 28 29 29 29 29 29 29 30 30 29 29 27 25 25 26 26 24 21 18 17 17 18 18 17 16 15 15 14 12 11 10 8 8 9 10 8 8 9 10 10 9 7 6 6 6 7 9 10 11 11 9 4 2 7 14 17 17 19
15 15 15 16 17 16 18 19 18 19 19 20 20 20 20 21 22 23 23 23 23 22 22 23 23 23 23 24 24 25 26 26 27 27 26 26 26 26 27 26 26 25 25 25 26 25 23 21 19 20 20 19 18 16 15 16 17 15 12 12 10 8 9 10 11 10 9 10 11 11 11 10 8 7 6 7 8 9 10 10 9 6 0 5 12 15 17 18
16 16 16 17 16 16 17 18 17 18 18 18 17 17 18 20 20 21 21 21 21 21 21 22 22 22 22 23 24 25 25 25 25 25 24 23 23 23 24 23 23 23 24 25 25 24 23 22 22 22 21 19 17 16 17 18 17 15 13 13 10 8 10 11 12 11 10 11 12 11 12 12 10 9 7 6 7 8 10 8 8 7 2 3 9 14 15 16
17 17 17 17 16 16 17 17 17 17 17 16 16 17 19 19 19 20 20 19 20 20 20 20 20 21 21 22 23 23 23 24 24 23 23 22 22 22 22 21 21 22 23 23 23 24 25 24 23 22 20 19 19 18 18 18 18 16 14 13 11 9 10 12 13 13 12 12 11 10 12 13 13 12 9 6 6 7 8 7 7 7 4 2 7 11 12 14
18 18 18 18 17 16 17 17 17 17 16 15 16 17 18 17 17 18 18 19 19 19 18 19 20 20 20 21 21 21 22 22 22 22 22 22 21 21 21 21 21 22 22 22 24 26 27 25 23 21 20 20 20 19 18 18 18 16 15 14 12 11 11 13 14 14 14 13 11 10 12 14 14 13 10 7 5 5 7 7 6 6 5 1 6 9 10 12
19 19 19 18 17 16 17 17 17 16 15 15 15 16 16 16 16 17 17 17 17 17 18 18 18 18 18 20 20 20 20 20 21 21 22 21 20 20 20 20 20 21 22 23 25 27 27 25 23 22 22 22 21 19 18 17 17 16 16 16 15 13 13 14 15 15 16 15 13 11 11 13 13 12 10 7 5 4 5 5 5 5 5 3 3 8 10 12
20 20 19 17 16 16 17 17 15 15 14 13 14 15 15 16 16 17 16 15 14 15 16 16 16 17 18 18 19 19 19 19 19 20 20 20 20 19 19 19 21 21 23 25 27 27 26 26 25 24 24 24 22 19 17 16 16 18 18 18 17 15 14 15 14 15 17 16 13 12 11 11 12 11 10 8 5 4 4 3 3 4 4 4 1 5 9 13
19 18 17 16 16 16 16 15 14 14 13 13 14 14 14 14 15 15 15 14 13 13 14 14 15 16 17 17 17 17 17 17 18 18 19 19 18 18 18 19 21 22 24 26 27 27 26 26 26 26 25 23 20 18 17 16 16 17 18 18 18 17 15 15 14 15 17 16 13 11 10 9 11 11 9 7 5 3 3 2 1 2 2 3 3 0 6 12
16 16 15 15 15 15 14 13 13 13 13 14 14 14 13 13 13 13 13 12 11 11 12 12 14 15 15 15 15 14 15 15 16 16 16 16 17 17 18 19 20 21 22 23 24 25 25 25 25 26 24 21 19 18 17 15 15 16 16 16 17 18 17 16 16 16 15 12 11 11 9 9 11 11 9 7 5 3 3 2 1 1 1 2 4 3 2 6
13 13 14 14 14 14 13 13 14 13 14 14 14 13 12 12 12 12 11 10 9 9 10 10 11 12 12 12 13 12 12 12 12 13 13 14 15 16 17 18 18 18 19 19 22 23 24 24 24 23 21 19 19 18 17 15 16 16 15 15 17 19 19 18 17 16 13 11 10 11 10 9 11 11 9 8 7 5 3 2 2 2 1 2 4 3 3 3
10 12 13 14 14 14 14 14 14 14 14 13 13 12 11 11 11 11 10 9 7 7 8 9 9 10 10 11 12 12 12 11 10 11 12 12 14 14 14 15 15 15 17 19 22 22 22 23 22 19 18 19 20 19 18 17 17 17 16 16 18 20 21 20 17 14 13 12 11 10 9 9 10 10 10 10 9 7 6 4 1 1 2 3 4 4 3 3
9 10 12 13 14 15 15 15 15 14 14 14 13 12 12 12 11 11 11 10 8 9 10 10 9 9 10 12 13 12 11 10 10 10 11 12 12 11 11 10 10 13 15 18 21 21 21 20 17 15 17 19 19 18 18 19 19 19 18 19 20 22 23 20 17 14 13 11 9 8 9 8 8 9 10 11 10 9 8 6 4 1 3 5 5 5 4 4
8 10 12 13 15 16 16 16 16 16 15 15 14 14 14 14 14 12 11 11 12 12 12 11 10 9 9 10 11 10 10 9 9 10 10 10 10 9 9 9 9 12 15 19 20 19 17 15 14 15 17 17 17 18 18 19 20 20 20 20 20 22 22 19 16 14 12 10 9 7 7 7 7 8 9 10 10 10 8 6 4 2 3 6 6 7 6 5
10 12 14 16 18 18 19 19 18 18 17 17 17 16 16 16 15 13 12 13 14 14 12 11 10 10 9 9 8 8 7 8 8 10 10 9 8 9 10 11 12 13 17 20 19 17 14 12 12 14 15 15 15 15 16 18 19 20 21 21 20 20 19 17 16 12 10 11 9 7 6 6 7 7 9 10 10 9 8 7 5 3 3 6 8 7 7 6
12 15 17 19 20 20 21 21 21 21 20 19 19 19 19 18 18 18 18 18 17 14 12 11 9 9 8 7 7 7 6 7 7 8 9 8 8 9 10 11 12 14 16 19 17 15 15 13 12 12 13 14 13 14 16 18 19 21 22 21 19 19 17 16 15 12 11 10 9 7 7 7 8 7 8 9 8 7 7 8 7 5 3 5 7 7 7 7
15 17 19 21 22 23 23 24 24 24 23 22 22 23 23 22 22 22 22 21 19 17 15 13 10 9 7 6 7 6 6 6 7 7 7 7 7 8 9 11 14 14 14 14 13 14 15 14 14 15 15 15 16 17 19 18 17 18 19 19 18 18 17 15 14 12 11 10 8 7 6 7 8 9 9 9 7 6 7 8 7 6 4 5 7 7 7 7
16 19 21 23 24 25 26 27 27 27 26 24 25 25 24 23 24 23 22 22 21 20 19 17 15 13 9 7 6 6 6 6 5 5 6 6 6 7 8 11 15 14 11 10 12 15 16 15 16 16 16 18 19 20 20 17 16 15 15 15 16 17 17 15 13 13 11 10 9 9 7 7 8 9 9 8 7 7 7 7 6 6 5 6 6 7 7 9
18 20 22 24 25 27 27 29 29 28 26 25 25 25 23 23 24 23 22 23 22 22 22 21 20 19 16 12 10 9 9 8 7 7 7 6 5 6 7 8 12 15 15 14 16 19 19 19 19 19 17 19 19 18 19 18 16 15 15 15 17 18 17 15 13 12 11 10 10 11 9 8 8 8 8 8 8 9 8 8 7 6 6 6 6 6 7 10
19 21 23 24 26 27 28 29 28 27 25 25 25 24 23 23 23 22 22 22 22 22 23 22 21 21 21 18 15 14 12 12 13 13 12 10 8 8 8 9 12 16 18 18 19 22 23 22 22 21 19 19 17 15 16 18 18 17 18 19 19 19 18 15 14 12 10 10 10 11 10 9 9 8 8 8 9 10 10 10 9 8 8 7 6 6 8 9
20 22 23 24 25 26 28 28 27 25 24 24 23 23 23 23 22 22 22 22 22 22 22 23 22 21 21 20 18 15 14 14 15 14 13 11 10 9 9 10 12 15 16 17 20 23 24 24 23 21 19 17 14 13 13 17 18 19 20 21 20 19 18 17 15 13 11 10 10 10 10 10 9 9 8 8 9 10 11 11 10 8 8 8 7 7 9 10
21 22 23 23 23 25 26 26 25 24 23 22 22 22 22 22 22 21 21 21 22 22 22 21 20 19 19 19 19 17 15 15 15 15 14 12 11 12 11 9 9 13 16 19 22 22 23 24 22 19 18 15 15 15 14 15 18 20 21 19 18 18 17 17 16 13 11 11 10 9 8 9 10 9 7 8 9 10 12 12 11 9 9 10 10 9 10 11
21 22 22 21 22 23 24 24 23 22 20 19 20 21 21 21 21 20 20 20 21 22 21 19 18 18 15 15 17 17 16 16 16 16 16 14 13 13 12 11 9 10 13 17 20 20 20 23 21 19 18 17 17 16 15 15 16 19 20 18 17 18 17 17 15 12 11 11 12 10 8 7 9 8 7 9 11 12 13 13 12 11 11 12 12 12 11 12
21 23 23 21 21 23 23 23 20 18 16 16 18 20 20 20 20 19 18 18 19 20 20 18 18 18 13 11 14 16 16 16 16 16 15 15 14 13 13 13 11 9 8 13 18 19 20 22 21 20 19 19 18 16 16 16 17 18 19 19 19 20 18 17 16 12 11 11 11 11 8 6 7 6 6 10 12 13 14 15 14 13 13 14 14 13 12 13
23 24 23 22 22 23 23 21 17 14 14 15 17 19 18 18 18 17 16 17 18 19 20 20 19 16 12 10 12 13 14 13 12 11 12 13 12 12 12 13 11 8 6 8 17 21 22 22 21 20 20 20 18 16 16 17 17 18 19 20 19 18 17 18 17 14 14 12 10 10 8 4 5 6 8 11 12 13 15 16 16 15 15 15 15 13 13 14
23 24 23 22 23 24 23 20 15 12 12 13 15 17 16 17 17 17 15 15 15 17 18 18 17 14 12 10 9 11 10 8 8 8 9 10 10 11 11 10 9 7 5 7 12 17 21 20 20 20 20 19 18 15 15 16 16 17 18 18 17 16 17 19 17 15 14 12 11 11 7 4 5 7 10 12 12 13 15 16 17 17 17 16 15 14 14 15
22 23 23 23 23 23 23 19 14 11 10 11 15 16 16 16 16 16 15 13 12 13 12 12 12 12 12 11 9 9 6 4 5 6 7 8 8 9 9 8 7 5 5 7 5 10 17 20 20 22 21 21 20 16 15 16 17 18 17 17 16 16 17 18 18 16 13 11 11 10 7 5 6 8 11 13 12 13 15 16 17 17 18 18 16 15 15 16
21 22 21 21 23 23 22 19 14 10 9 11 15 16 16 16 16 15 14 13 13 13 11 10 10 10 9 8 7 6 4 2 1 2 3 4 5 6 5 4 3 2 4 4 2 6 14 19 22 24 23 22 22 20 18 18 19 20 19 17 17 17 17 17 18 15 12 11 10 9 9 7 7 10 13 14 12 13 15 16 17 18 18 18 17 15 15 15
20 21 20 20 21 22 21 17 13 11 10 11 14 15 15 16 16 14 13 13 14 14 13 13 12 10 8 6 5 5 5 4 3 4 3 1 1 3 3 2 2 2 4 6 6 5 9 16 24 28 25 22 22 22 22 21 21 22 21 18 16 16 16 17 17 15 13 14 11 9 9 9 10 14 14 14 13 13 15 16 18 19 19 18 16 14 14 14
19 20 19 20 20 20 19 17 14 13 12 11 12 13 14 15 15 14 13 13 14 14 14 14 14 13 12 10 7 7 7 7 6 7 8 6 4 4 5 5 5 6 8 9 8 6 7 15 26 30 28 26 24 23 24 24 23 23 23 20 17 15 16 17 17 16 17 17 15 12 10 11 13 15 14 14 14 13 15 17 18 20 20 18 17 14 13 13
18 19 19 20 20 19 19 18 16 15 14 12 11 12 14 14 15 15 15 14 14 14 14 15 16 15 15 15 13 12 11 11 10 11 11 11 10 9 9 9 9 10 10 10 7 6 8 14 25 31 32 30 26 22 23 26 25 23 23 22 20 18 19 18 17 19 20 21 19 15 12 13 13 14 14 15 13 13 15 17 18 21 21 19 18 15 14 14
17 18 18 19 20 19 18 18 18 17 16 13 12 12 13 14 15 16 15 15 16 16 14 14 16 16 17 17 16 16 16 16 15 15 15 14 14 14 14 14 14 13 11 9 8 5 6 12 22 29 31 31 29 24 23 25 24 21 20 21 22 22 20 19 19 19 20 20 19 15 13 13 13 14 16 15 13 14 15 15 17 20 21 20 19 18 16 15
14 16 17 18 19 19 18 18 18 18 17 14 13 13 12 13 14 15 15 15 16 17 16 14 15 16 17 18 17 17 18 19 18 19 19 18 17 17 18 18 16 15 12 10 9 7 6 9 17 25 27 27 27 26 25 25 23 20 19 19 20 20 20 20 19 19 18 18 17 15 13 12 14 16 17 14 14 14 15 15 17 19 20 20 20 20 18 16
13 14 14 15 16 17 17 17 17 18 17 15 14 13 13 13 13 13 13 13 13 13 14 12 11 12 13 14 15 16 18 19 20 21 21 21 21 20 20 20 18 17 15 12 10 9 7 7 10 19 25 25 26 27 26 25 23 21 20 20 20 20 21 21 20 20 19 18 18 16 14 15 17 18 17 15 15 15 15 16 17 18 19 19 20 20 19 17
Wind_Direction
247 247 248 248 248 248 248 248 248 247 247 246 246 246 246 246 247 247 249 250 250 252 253 255 256 256 254 255 257 260 266 273 281 279 269 259 249 245 242 251 353 33 24 32 55 77 74 69 63 49 46 39 31 40 57 66 67 67 65 59 50 38 29 32 35 32 30 30 29 24 19 4 342 13 84 101 82 46 88 136 143 137 135 150 156 150 151 147
245 246 246 247 247 247 248 248 248 247 247 247 247 246 246 246 247 247 248 249 250 251 252 254 256 257 256 256 257 260 266 271 276 272 259 248 241 237 232 233 207 91 2 26 44 57 65 69 60 46 51 45 32 29 45 65 68 68 70 62 52 46 39 38 37 34 29 28 29 23 20 15 357 7 86 99 98 88 79 133 154 142 137 149 155 157 158 151
246 245 245 245 246 246 246 247 247 247 247 247 247 247 247 247 247 248 249 250 251 252 253 254 256 258 259 259 259 261 264 268 269 263 249 237 233 230 224 218 195 205 292 6 22 28 43 52 39 32 28 37 39 18 20 60 71 67 73 69 60 55 49 44 38 32 25 22 26 23 19 19 21 30 79 94 97 113 74 97 152 146 144 148 150 158 160 153
247 246 244 244 244 244 245 245 246 246 246 246 247 247 247 248 248 249 249 250 252 253 254 255 256 258 260 261 261 260 260 262 260 252 240 229 227 225 217 209 198 209 259 333 349 352 11 15 4 7 356 22 42 10 359 43 66 66 73 75 69 59 49 42 36 28 22 18 21 23 19 19 24 30 45 87 94 100 80 85 121 144 151 148 145 152 155 154
248 247 246 244 244 243 243 244 244 245 245 246 246 246 246 247 247 248 249 250 251 252 253 254 255 257 258 259 259 257 255 253 248 240 230 223 223 219 210 208 204 205 230 274 298 318 346 347 347 1 351 7 37 13 356 8 42 58 68 74 73 63 50 42 36 27 21 18 17 20 18 18 24 29 31 72 97 96 96 99 112 145 156 147 146 148 151 155
249 248 247 246 244 243 243 242 242 243 244 244 245 245 245 246 246 246 247 248 249 249 250 251 252 253 255 256 255 252 248 243 237 230 224 218 218 213 207 210 206 203 222 244 267 300 328 335 348 4 343 348 39 38 5 341 357 26 51 65 71 71 67 57 43 29 20 16 12 14 15 16 22 33 37 60 104 128 160 126 123 143 152 150 150 152 154 157
249 248 247 247 246 244 243 242 241 241 242 243 244 244 244 244 244 245 245 245 246 247 247 247 248 249 250 251 249 246 241 236 230 224 221 216 212 209 208 213 210 208 226 240 254 281 308 325 348 357 321 326 31 80 37 335 324 337 30 58 65 75 78 70 55 35 21 13 6 6 11 12 17 28 38 56 99 149 175 147 133 144 153 157 155 157 162 160
249 249 248 247 246 245 244 243 242 241 240 241 242 243 243 244 244 243 243 243 244 244 244 244 244 245 246 245 243 240 236 233 227 221 221 218 212 210 212 216 219 218 229 239 246 260 273 283 301 303 298 316 332 88 71 349 307 307 14 59 66 76 82 79 72 51 26 10 2 360 5 9 13 19 30 48 75 132 171 157 145 154 160 160 158 160 165 163
250 249 248 247 247 246 245 244 243 242 240 240 240 241 242 242 243 243 242 242 242 242 242 242 241 241 241 240 238 235 233 231 226 221 221 221 216 217 220 223 225 223 228 236 242 248 250 256 275 285 286 298 313 58 86 1 299 284 325 67 86 89 93 96 92 70 39 12 3 359 1 6 10 13 21 38 53 78 153 184 168 165 166 163 164 163 165 168
251 250 249 248 247 246 245 244 244 243 241 240 239 239 240 241 242 242 242 241 240 241 241 240 239 238 238 237 234 232 231 230 227 222 222 224 223 224 226 225 225 224 226 232 240 245 248 258 271 276 276 280 288 261 171 306 289 269 247 213 120 114 115 108 103 89 56 17 7 3 2 5 7 9 14 28 39 49 104 201 195 176 175 172 172 168 166 172
251 250 250 248 247 247 246 245 244 243 242 241 240 239 239 239 240 241 241 241 240 239 240 239 237 236 235 234 232 231 231 230 228 225 223 226 227 227 226 224 224 226 226 231 242 249 254 263 270 273 274 270 265 251 216 200 265 265 243 236 186 145 138 118 114 113 83 10 3 3 5 8 8 8 10 21 29 33 51 203 210 191 185 184 178 169 166 173
250 250 249 249 248 247 246 245 244 244 243 242 241 239 239 239 239 239 240 240 239 239 239 239 237 235 233 233 232 231 231 231 230 228 226 226 228 228 227 226 226 227 229 236 244 251 258 265 271 273 268 263 260 251 236 211 232 255 249 237 220 198 164 135 133 136 161 309 347 3 12 16 12 8 6 12 20 21 23 213 211 204 195 191 182 171 170 172
248 248 248 248 247 247 247 245 244 244 243 242 241 240 239 239 239 239 239 239 239 239 238 238 238 236 235 234 234 232 232 232 232 233 231 228 230 232 231 228 226 227 231 237 244 251 258 264 268 272 272 269 264 256 246 224 217 241 246 230 217 220 190 147 141 166 288 302 320 350 13 21 18 12 5 3 7 13 15 13 207 208 200 193 185 173 170 171
248 248 248 247 246 246 246 246 245 244 243 242 241 240 240 239 239 239 239 239 239 239 238 238 238 238 237 237 236 235 235 235 235 236 236 234 234 234 234 231 228 229 232 238 246 253 259 263 266 270 272 269 263 258 245 224 215 233 237 222 215 217 197 169 161 204 265 284 294 313 353 16 21 16 8 359 356 5 14 14 208 207 200 193 187 176 170 172
247 247 247 247 246 246 246 245 244 244 243 242 241 240 240 239 239 239 239 240 240 239 240 240 239 239 240 239 239 239 240 240 240 240 240 239 237 236 237 236 235 235 237 241 246 253 258 261 263 266 266 261 258 257 245 224 213 226 231 224 216 205 193 194 198 240 259 263 272 294 334 5 18 17 10 0 353 359 11 16 210 208 202 193 188 180 175 179
245 245 245 246 246 245 245 245 244 244 243 242 241 240 240 239 240 240 240 240 240 240 240 241 241 241 242 242 242 243 244 244 243 242 242 242 242 241 242 243 241 240 240 243 247 252 256 258 259 259 257 254 253 253 245 226 212 218 224 224 216 196 178 200 221 245 258 260 262 279 324 358 10 14 11 1 355 1 7 14 345 211 202 192 187 183 181 184
243 243 244 244 244 245 245 245 243 243 243 242 241 240 239 239 239 239 240 240 240 241 241 242 242 243 243 244 244 244 245 245 245 245 245 246 247 247 246 245 244 243 243 245 248 251 254 255 255 252 249 248 249 248 241 228 217 214 216 225 221 192 153 199 237 250 256 264 268 277 314 356 2 5 11 2 358 5 7 9 6 209 199 191 185 184 184 187
240 241 242 243 243 243 245 245 243 243 243 242 241 240 239 239 239 239 240 240 240 240 241 241 242 242 243 243 244 245 246 247 247 247 247 247 247 247 247 247 247 248 247 247 248 250 252 252 251 248 246 244 242 239 236 231 225 216 213 224 221 186 164 206 237 251 262 273 276 280 303 350 356 352 9 7 1 9 10 8 12 169 194 191 186 186 188 187
237 239 242 244 244 243 245 245 244 243 243 243 242 240 239 239 239 239 239 239 239 239 239 239 239 240 241 241 242 243 244 246 247 247 247 246 247 247 248 249 249 249 248 247 248 249 250 249 247 243 238 235 233 234 234 232 229 221 215 219 215 189 182 211 234 249 264 276 279 282 294 330 348 343 4 13 6 13 16 11 14 51 183 190 188 191 193 189
236 238 242 245 246 246 246 247 245 244 244 243 242 240 239 238 238 237 238 238 238 238 238 238 238 238 239 239 239 240 241 243 244 245 245 246 247 248 249 249 248 248 245 244 245 246 246 243 240 235 232 233 234 238 239 234 229 224 218 218 215 194 189 216 232 243 258 270 277 281 289 311 333 334 355 16 11 16 21 18 14 20 168 188 192 197 199 194
237 239 243 247 249 250 250 249 246 245 244 243 241 240 238 236 235 235 236 236 237 237 237 237 237 237 237 238 237 238 238 239 241 242 243 244 245 246 247 247 246 245 242 241 242 243 241 237 233 231 231 234 238 240 238 230 226 224 221 221 218 193 190 217 230 237 250 262 271 278 287 300 317 322 341 13 16 18 23 24 18 12 142 198 199 200 202 197
239 241 246 249 252 253 253 252 248 245 243 242 240 237 234 232 231 232 233 234 235 235 236 236 237 236 236 236 236 237 237 238 239 241 241 242 242 243 244 244 242 240 239 239 239 237 235 231 229 229 229 232 232 230 227 225 224 225 223 224 221 196 195 220 234 240 246 253 263 274 285 294 305 310 321 358 14 19 20 25 25 18 12 213 202 196 197 195
243 245 248 251 254 254 254 253 249 245 242 240 236 232 231 229 228 230 230 231 232 233 234 235 235 236 236 236 237 238 238 240 240 240 240 239 240 240 241 241 239 237 237 236 234 231 230 228 228 229 228 227 225 223 223 224 225 226 226 226 224 207 207 227 238 242 245 248 258 269 281 289 297 302 307 334 1 16 19 21 27 26 22 232 202 194 195 192
248 250 252 254 255 254 253 251 247 243 239 235 232 229 229 227 226 227 228 228 230 231 232 232 233 234 234 236 237 237 238 239 240 240 241 240 240 239 239 238 236 235 234 232 230 229 229 227 225 225 224 224 224 222 223 224 226 230 231 229 227 219 217 230 240 247 250 249 253 260 273 284 290 297 305 320 345 8 17 17 27 31 26 345 213 207 204 197
252 252 253 254 254 251 249 246 243 239 234 230 228 226 225 223 222 223 225 226 227 228 230 232 233 234 234 236 235 235 236 237 239 240 241 241 239 238 238 237 235 233 231 229 228 229 229 225 222 219 219 221 221 219 219 223 227 231 231 230 231 228 224 229 240 253 254 248 246 249 262 278 285 294 306 316 339 7 14 15 28 35 30 20 227 216 209 203
250 251 252 251 248 245 243 240 236 233 228 223 221 221 221 219 219 220 222 224 224 227 229 231 233 233 234 235 236 236 235 235 237 239 241 241 239 239 238 236 232 229 227 226 227 227 226 223 220 218 218 219 218 216 216 219 226 228 227 230 235 235 232 233 241 251 251 245 242 243 253 276 286 290 301 315 337 13 24 15 30 40 37 35 24 216 213 209
246 246 245 243 239 237 235 232 229 225 218 213 214 215 216 218 219 220 221 221 222 225 227 228 230 231 232 233 235 236 232 232 234 235 237 238 238 236 235 233 232 228 226 227 227 225 224 223 221 219 219 218 216 214 213 215 224 229 229 234 240 243 243 244 246 247 247 244 241 243 251 272 282 284 293 312 331 14 41 29 32 49 40 33 30 228 221 217
241 239 237 234 230 228 225 220 217 212 206 205 206 206 209 213 216 218 217 214 218 222 222 223 225 228 229 229 230 231 231 231 231 233 237 238 237 234 231 230 229 227 226 228 230 229 227 225 223 222 220 217 214 214 213 214 222 229 234 240 245 247 248 249 246 242 245 245 241 247 254 257 265 275 286 303 321 344 28 30 42 83 49 7 359 3 288 232
233 230 226 222 217 214 209 206 203 198 196 198 197 197 201 205 209 212 206 198 205 212 208 209 216 221 224 220 218 219 222 225 224 228 234 235 235 233 231 230 227 224 221 222 227 229 229 228 227 226 219 215 216 216 215 214 219 227 232 238 243 245 245 243 239 238 244 243 240 250 256 249 252 267 279 286 299 307 318 358 44 92 73 3 342 345 337 294
223 217 212 207 202 198 194 192 190 186 188 189 187 188 189 190 194 192 180 172 177 180 178 184 194 205 210 206 205 208 212 215 213 219 224 226 230 230 230 231 230 225 219 219 223 225 227 229 231 228 218 219 222 222 220 217 220 226 229 236 240 239 238 236 233 235 240 235 234 247 255 253 254 263 271 273 279 287 293 308 333 81 50 15 352 343 326 314
207 202 198 193 188 184 181 179 176 176 179 178 174 173 170 167 166 160 155 153 150 151 158 168 174 183 196 198 199 203 205 206 206 211 217 220 225 227 226 226 227 226 219 218 222 222 225 230 231 224 220 225 228 227 225 223 225 227 229 233 232 229 231 233 231 230 231 228 229 244 256 261 260 259 265 272 277 277 280 296 304 320 12 2 351 341 323 307
183 180 177 175 172 170 168 166 165 167 168 163 159 157 152 147 143 140 144 146 143 146 155 160 160 166 181 191 195 198 199 201 204 208 212 214 214 213 210 205 208 214 211 211 216 218 219 222 220 217 220 225 230 232 233 233 234 232 229 227 222 222 227 227 225 223 223 225 227 240 259 264 261 258 262 270 277 272 267 280 294 298 351 352 342 335 325 310
163 160 160 161 161 161 160 158 158 158 156 150 147 146 140 136 135 133 138 142 140 142 149 152 155 159 165 173 177 181 188 195 202 209 210 209 209 208 202 197 200 203 201 204 207 207 205 206 206 211 216 219 225 233 233 231 231 227 223 219 214 218 222 221 220 217 217 226 230 237 256 260 258 258 257 262 272 277 273 273 279 285 331 341 332 332 333 322
149 150 152 153 153 154 153 152 151 148 146 144 143 139 135 134 136 133 133 134 132 133 136 139 148 153 157 161 159 162 176 189 198 205 207 206 210 213 204 196 200 202 202 203 203 197 191 187 185 189 200 204 203 210 216 217 219 219 217 213 211 214 217 219 220 214 214 226 235 243 254 262 264 265 262 263 271 288 294 286 280 280 295 324 323 324 333 331
144 147 148 149 150 150 150 149 146 143 143 144 141 137 135 136 136 134 133 129 125 123 122 122 124 127 139 151 147 150 163 179 189 193 199 205 214 221 211 197 198 202 205 204 198 188 177 171 171 176 186 190 188 197 207 209 212 216 215 209 207 210 214 218 219 217 217 222 229 236 248 266 272 275 274 270 271 290 302 296 290 287 283 298 311 315 323 324
145 147 149 150 150 149 149 147 144 142 142 142 140 140 141 141 138 136 135 130 125 121 115 111 108 103 105 117 125 132 143 155 167 173 182 191 204 217 216 207 199 192 187 187 182 173 163 161 169 175 179 183 189 200 205 203 204 204 201 201 204 206 210 213 216 220 220 218 222 225 237 263 270 276 282 279 277 290 301 299 298 302 298 295 299 301 307 314
151 153 154 153 151 150 148 146 144 143 143 142 144 146 148 148 144 141 139 134 129 125 118 115 111 103 97 97 103 112 120 127 126 130 144 148 156 175 186 200 197 179 167 167 170 166 160 163 171 171 172 183 195 204 202 198 194 186 186 195 201 203 206 209 214 222 222 218 222 225 232 249 259 268 285 292 290 294 299 296 295 309 318 311 298 287 294 309
157 159 158 155 153 151 149 146 145 145 145 146 147 149 151 151 148 145 142 136 133 129 125 122 119 114 108 104 105 106 108 112 111 110 113 112 113 127 146 165 176 174 169 166 168 167 164 168 172 171 176 188 196 201 201 196 187 179 185 193 195 198 202 206 213 221 225 225 227 228 230 238 247 256 276 293 297 299 299 293 291 304 317 312 296 286 292 303
161 162 160 157 154 152 150 147 146 148 150 151 151 152 153 151 148 145 142 138 136 133 132 130 126 124 123 119 116 112 109 111 109 106 105 105 102 104 125 151 164 170 169 164 167 169 168 171 174 176 184 190 187 187 198 198 188 185 191 193 194 197 201 206 211 214 217 225 230 228 227 231 238 248 264 284 297 299 295 288 285 292 302 302 295 293 299 302
164 163 161 158 155 153 151 148 148 151 153 155 158 158 155 151 148 145 144 143 141 138 138 137 134 133 133 131 129 126 124 120 113 108 106 106 106 102 108 125 149 164 165 165 169 172 171 171 175 183 185 182 180 182 188 195 195 195 196 196 198 201 205 209 209 207 209 220 229 223 215 225 233 240 261 279 287 290 288 284 283 283 288 294 295 297 304 305
166 164 162 159 157 154 151 150 152 154 154 157 162 163 159 155 151 149 149 149 148 146 144 144 143 139 137 141 141 139 138 134 128 123 118 118 122 123 122 122 133 157 169 174 173 171 173 173 179 189 184 177 180 178 178 186 193 198 198 197 200 202 206 207 198 194 205 217 226 219 203 221 235 239 262 277 277 282 285 283 282 283 286 292 294 293 299 304
167 165 164 163 159 155 153 153 154 156 157 161 166 166 165 163 160 158 157 156 154 152 149 152 151 142 139 157 159 151 147 144 141 140 137 135 138 143 138 127 122 126 150 177 177 174 179 180 183 189 184 182 182 172 172 180 186 194 193 194 203 206 202 194 182 182 200 210 221 221 205 217 244 253 274 280 276 280 284 282 283 286 287 292 293 288 291 300
169 168 168 167 162 159 157 157 159 163 164 165 168 170 170 172 172 171 170 167 162 158 155 157 154 141 138 159 165 158 154 152 153 151 144 143 148 151 138 125 120 109 106 167 182 185 186 184 189 192 185 181 177 168 174 181 184 189 189 191 202 202 190 182 178 187 200 203 215 220 205 212 259 277 286 282 279 282 283 282 285 287 287 290 290 285 290 297
172 172 173 172 167 163 163 165 170 173 172 172 173 175 176 177 179 183 184 178 170 165 160 157 154 147 144 151 161 167 164 159 163 158 149 155 161 154 141 134 139 130 113 146 177 193 193 189 193 192 180 174 175 175 180 186 186 187 190 194 195 190 186 185 186 196 201 200 214 218 206 224 264 280 288 281 278 284 285 284 287 288 287 286 282 283 292 298
174 175 176 176 174 170 169 173 176 174 175 179 179 180 182 183 187 193 193 185 175 172 169 165 165 163 159 162 176 190 191 173 164 162 158 162 160 153 151 154 155 153 156 159 170 195 198 198 196 191 187 186 190 195 195 197 195 191 191 194 192 193 198 199 199 202 202 204 216 218 211 234 265 277 281 278 280 291 291 287 287 288 288 285 280 284 292 297
175 178 180 180 179 177 176 177 179 176 176 181 185 187 190 193 198 202 199 194 189 185 186 192 193 187 177 180 199 219 244 268 197 185 166 147 144 156 164 166 166 179 200 221 255 193 197 205 197 195 202 200 196 200 203 206 204 196 192 194 198 205 212 213 209 206 209 214 219 225 223 231 261 269 270 276 287 299 298 293 289 286 287 286 284 288 294 298
175 180 183 183 183 184 184 184 185 187 183 185 192 198 203 205 209 213 212 206 201 198 200 206 208 205 203 210 227 249 275 294 297 293 289 281 169 188 207 240 260 268 269 274 274 232 215 211 199 199 209 209 203 202 202 207 209 200 195 197 204 214 222 223 216 211 220 225 224 232 232 231 250 260 268 281 291 300 302 297 289 282 282 287 290 294 297 299
177 182 184 184 187 190 191 193 197 199 197 197 203 210 216 219 219 224 229 223 214 209 210 214 216 213 213 220 229 236 253 269 273 276 280 282 271 244 247 269 282 294 306 302 283 262 245 214 201 203 210 214 216 212 204 205 207 200 198 201 205 217 226 226 223 222 229 234 233 234 235 237 249 260 273 285 290 300 304 297 289 282 280 286 293 295 298 300
178 184 185 186 189 193 195 199 204 206 206 209 215 219 224 229 228 230 237 238 231 224 217 217 223 224 222 225 231 233 240 249 254 262 269 270 269 267 266 273 281 286 298 311 303 271 248 220 205 205 211 217 223 222 210 205 203 200 202 207 209 218 226 228 229 230 233 239 241 240 242 245 255 269 277 282 290 301 303 298 293 287 283 287 293 294 297 300
181 186 187 188 191 195 196 200 204 206 208 213 223 227 229 233 234 237 243 246 246 244 236 225 226 230 229 230 235 238 242 245 246 252 258 261 263 266 268 272 280 280 280 299 315 295 255 234 215 209 216 222 225 226 215 203 203 205 207 209 211 217 227 230 232 236 239 242 243 244 247 248 255 268 273 279 292 301 304 303 299 293 286 287 292 294 296 299
188 189 190 190 192 194 194 196 199 202 206 212 223 231 233 234 236 239 245 252 255 257 257 250 241 238 235 234 236 240 245 249 249 249 253 256 257 261 265 268 274 278 274 279 303 312 287 255 228 217 220 225 225 227 222 209 209 213 213 214 215 220 231 236 241 245 244 243 243 243 244 245 251 260 267 278 293 302 308 310 306 297 287 285 290 293 298 302
192 192 194 197 197 196 195 194 195 200 207 214 221 228 234 238 239 239 241 247 254 259 264 266 258 249 243 238 237 238 242 249 252 252 253 254 255 258 262 266 272 279 278 270 281 298 294 273 239 221 222 228 228 230 228 220 217 221 222 223 224 229 236 239 241 243 242 243 245 241 236 236 243 254 265 280 293 302 308 311 307 298 287 283 287 293 300 307
Height
5880 5881 5882 5883 5884 5885 5885 5886 5887 5888 5889 5890 5891 5892 5892 5893 5894 5894 5895 5895 5896 5897 5897 5897 5898 5899 5900 5900 5901 5902 5902 5902 5903 5903 5904 5904 5904 5904 5904 5905 5905 5905 5905 5905 5906 5906 5906 5906 5906 5906 5906 5906 5906 5906 5905 5905 5905 5904 5905 5904 5904 5903 5902 5901 5900 5899 5898 5898 5897 5896 5895 5894 5893 5895 5897 5898 5897 5895 5896 5897 5897 5898 5898 5899 5900 5901 5901 5902
5878 5879 5880 5881 5882 5882 5883 5884 5885 5886 5887 5888 5889 5890 5890 5891 5892 5893 5893 5894 5895 5895 5896 5896 5897 5897 5898 5899 5900 5900 5901 5901 5902 5902 5903 5903 5904 5904 5904 5904 5905 5905 5905 5905 5906 5906 5906 5906 5906 5906 5906 5907 5906 5906 5906 5906 5905 5905 5905 5905 5905 5904 5903 5902 5901 5900 5899 5899 5898 5897 5896 5895 5894 5894 5896 5897 5897 5896 5896 5897 5897 5898 5899 5900 5900 5901 5901 5902
5875 5876 5877 5878 5879 5880 5881 5882 5883 5884 5885 5886 5887 5887 5888 5889 5890 5891 5891 5892 5893 5893 5894 5894 5895 5896 5896 5897 5898 5899 5899 5900 5900 5901 5902 5902 5903 5903 5904 5904 5904 5905 5905 5905 5906 5906 5906 5906 5906 5906 5907 5907 5906 5906 5906 5906 5906 5906 5906 5906 5906 5905 5904 5903 5902 5901 5900 5899 5899 5898 5897 5896 5895 5895 5895 5897 5897 5896 5896 5897 5897 5898 5898 5899 5900 5901 5902 5902
5872 5873 5874 5875 5877 5878 5879 5880 5881 5882 5883 5884 5884 5885 5886 5887 5888 5888 5889 5890 5891 5891 5892 5893 5893 5894 5894 5895 5896 5897 5898 5898 5899 5900 5901 5901 5902 5902 5903 5903 5904 5904 5905 5905 5906 5906 5906 5906 5906 5907 5907 5907 5906 5906 5906 5907 5907 5907 5907 5907 5907 5906 5905 5904 5902 5901 5901 5900 5900 5899 5899 5898 5896 5896 5896 5896 5896 5896 5896 5897 5898 5899 5899 5899 5900 5901 5902 5903
5870 5870 5871 5873 5874 5875 5876 5877 5879 5880 5881 5881 5882 5883 5884 5885 5885 5886 5887 5888 5889 5889 5890 5891 5891 5892 5893 5893 5894 5895 5896 5897 5897 5898 5899 5900 5901 5902 5902 5903 5903 5904 5904 5905 5905 5905 5906 5906 5906 5907 5907 5907 5906 5906 5906 5907 5907 5908 5908 5908 5908 5907 5906 5905 5903 5902 5902 5901 5900 5900 5900 5899 5898 5898 5897 5897 5896 5895 5896 5897 5898 5899 5899 5899 5900 5901 5902 5903
5867 5868 5869 5870 5871 5872 5873 5875 5876 5877 5878 5879 5880 5881 5882 5883 5883 5884 5885 5886 5886 5887 5888 5889 5889 5890 5891 5892 5893 5893 5894 5895 5896 5897 5898 5899 5900 5901 5901 5902 5902 5903 5903 5904 5905 5905 5905 5906 5906 5906 5907 5907 5906 5906 5907 5907 5907 5908 5908 5908 5908 5908 5907 5906 5904 5903 5902 5902 5901 5901 5901 5901 5900 5900 5899 5899 5898 5896 5897 5897 5898 5899 5901 5901 5900 5900 5901 5903
5864 5865 5866 5867 5868 5869 5870 5872 5873 5875 5876 5877 5878 5879 5880 5881 5881 5882 5883 5884 5885 5885 5886 5887 5888 5889 5889 5890 5891 5892 5893 5893 5894 5895 5897 5898 5899 5900 5900 5901 5901 5902 5903 5903 5904 5904 5905 5905 5906 5906 5907 5907 5906 5907 5907 5907 5907 5908 5909 5909 5908 5908 5908 5907 5905 5904 5903 5902 5902 5901 5901 5901 5901 5901 5901 5900 5899 5897 5897 5898 5898 5900 5901 5901 5901 5901 5901 5902
5861 5862 5863 5864 5865 5866 5867 5869 5870 5872 5873 5874 5875 5877 5878 5878 5879 5880 5881 5882 5883 5883 5884 5885 5886 5887 5888 5889 5890 5891 5891 5892 5893 5894 5895 5897 5898 5899 5899 5900 5901 5901 5902 5902 5903 5904 5904 5905 5905 5906 5906 5906 5906 5907 5907 5908 5908 5908 5909 5909 5909 5908 5908 5907 5906 5905 5904 5903 5902 5902 5901 5901 5901 5901 5901 5901 5899 5898 5898 5898 5899 5899 5901 5901 5902 5902 5902 5903
5858 5859 5860 5861 5862 5863 5864 5866 5867 5869 5870 5872 5873 5874 5875 5876 5877 5878 5879 5880 5881 5882 5882 5884 5885 5886 5887 5888 5889 5890 5890 5891 5892 5893 5894 5895 5897 5897 5898 5899 5900 5901 5901 5902 5902 5903 5903 5904 5904 5905 5905 5906 5906 5906 5907 5908 5908 5908 5908 5909 5909 5909 5908 5908 5907 5906 5905 5904 5903 5902 5902 5901 5901 5901 5901 5900 5899 5898 5898 5898 5899 5899 5900 5901 5902 5902 5902 5903
5855 5856 5857 5858 5859 5860 5861 5863 5864 5865 5867 5868 5870 5871 5873 5874 5875 5876 5877 5878 5879 5880 5881 5882 5883 5884 5885 5886 5887 5888 5889 5890 5891 5892 5893 5894 5895 5896 5897 5898 5899 5900 5901 5901 5902 5902 5902 5903 5904 5905 5905 5905 5906 5906 5906 5907 5908 5909 5908 5908 5909 5909 5908 5908 5907 5906 5906 5905 5904 5903 5902 5901 5901 5901 5901 5900 5899 5898 5898 5898 5898 5899 5899 5901 5902 5902 5903 5903
5853 5854 5854 5855 5856 5857 5858 5860 5861 5862 5864 5865 5867 5868 5870 5871 5872 5873 5875 5876 5877 5878 5879 5880 5881 5882 5883 5885 5886 5887 5888 5889 5890 5891 5892 5893 5894 5895 5896 5897 5898 5899 5900 5900 5901 5901 5902 5903 5903 5904 5904 5905 5905 5905 5906 5906 5907 5909 5909 5908 5908 5909 5908 5908 5907 5907 5906 5905 5904 5904 5903 5902 5901 5901 5900 5900 5899 5898 5898 5898 5898 5899 5899 5900 5901 5902 5903 5903
5850 5851 5852 5853 5854 5854 5856 5857 5858 5859 5861 5862 5864 5865 5867 5868 5870 5871 5872 5873 5875 5876 5877 5878 5879 5881 5882 5883 5884 5885 5886 5887 5888 5889 5891 5892 5893 5894 5895 5896 5897 5898 5899 5900 5900 5900 5901 5902 5903 5903 5904 5904 5905 5905 5905 5906 5907 5908 5909 5908 5908 5908 5908 5908 5907 5907 5906 5905 5905 5904 5903 5902 5901 5901 5900 5899 5899 5898 5898 5898 5898 5898 5899 5899 5901 5902 5903 5904
5847 5848 5849 5850 5851 5852 5853 5854 5855 5857 5858 5859 5861 5862 5863 5865 5866 5868 5869 5871 5872 5874 5875 5876 5878 5879 5880 5881 5882 5883 5884 5885 5886 5888 5889 5891 5892 5893 5893 5895 5896 5897 5898 5899 5899 5900 5900 5901 5902 5902 5903 5904 5904 5905 5905 5905 5906 5907 5908 5908 5908 5908 5907 5907 5907 5907 5906 5905 5905 5904 5903 5902 5901 5900 5899 5898 5898 5898 5898 5898 5898 5898 5898 5899 5900 5901 5903 5903
5845 5846 5846 5847 5848 5849 5850 5851 5852 5854 5855 5856 5858 5859 5860 5862 5863 5865 5866 5868 5870 5871 5873 5874 5876 5877 5878 5879 5880 5881 5882 5884 5885 5887 5888 5889 5890 5891 5892 5893 5895 5896 5897 5897 5898 5899 5899 5900 5901 5902 5902 5903 5904 5904 5904 5904 5905 5906 5908 5908 5907 5907 5907 5907 5907 5906 5906 5905 5904 5904 5903 5902 5901 5900 5899 5898 5897 5898 5898 5897 5897 5897 5898 5898 5900 5901 5902 5903
5842 5843 5844 5844 5845 5846 5847 5848 5850 5851 5852 5853 5855 5856 5857 5859 5860 5861 5863 5865 5867 5868 5870 5872 5873 5875 5876 5877 5878 5879 5881 5882 5884 5885 5886 5887 5888 5889 5890 5892 5893 5895 5896 5896 5897 5897 5898 5899 5900 5901 5902 5902 5903 5903 5904 5904 5904 5906 5907 5907 5906 5906 5906 5906 5906 5906 5906 5905 5904 5904 5903 5903 5902 5900 5899 5897 5897 5897 5897 5897 5897 5897 5897 5898 5899 5901 5902 5902
5839 5840 5841 5842 5843 5844 5844 5846 5847 5848 5849 5851 5852 5853 5855 5856 5857 5859 5860 5862 5864 5865 5867 5869 5870 5872 5873 5874 5876 5877 5879 5880 5882 5883 5884 5885 5886 5888 5889 5891 5892 5893 5894 5895 5896 5896 5897 5897 5899 5900 5901 5901 5902 5902 5903 5903 5903 5904 5906 5906 5906 5905 5905 5906 5906 5906 5906 5905 5905 5904 5903 5903 5902 5901 5899 5898 5897 5897 5896 5896 5896 5896 5896 5897 5898 5900 5901 5902
5837 5838 5838 5839 5840 5841 5842 5843 5844 5845 5847 5848 5849 5851 5852 5853 5855 5856 5858 5859 5861 5863 5864 5866 5868 5869 5870 5872 5873 5875 5876 5877 5879 5880 5881 5883 5884 5886 5887 5888 5890 5891 5892 5894 5894 5895 5895 5896 5897 5899 5900 5900 5901 5901 5901 5901 5902 5903 5905 5905 5905 5905 5906 5906 5907 5907 5906 5906 5905 5904 5904 5904 5903 5902 5900 5899 5898 5897 5896 5895 5895 5895 5896 5897 5898 5899 5901 5902
5835 5835 5836 5837 5838 5839 5839 5841 5842 5843 5844 5845 5847 5848 5850 5851 5852 5854 5855 5857 5858 5860 5862 5863 5865 5866 5867 5869 5871 5872 5873 5874 5876 5878 5879 5880 5882 5883 5884 5886 5887 5889 5891 5892 5892 5893 5894 5895 5896 5898 5899 5899 5900 5900 5900 5900 5901 5902 5904 5905 5905 5905 5906 5907 5907 5907 5906 5906 5905 5904 5904 5904 5903 5902 5901 5900 5899 5898 5897 5895 5894 5895 5896 5897 5898 5899 5900 5902
5833 5833 5834 5834 5835 5837 5837 5838 5840 5841 5842 5843 5844 5846 5847 5849 5850 5852 5853 5855 5856 5858 5859 5861 5862 5863 5864 5866 5868 5869 5870 5871 5873 5874 5875 5877 5879 5880 5881 5883 5885 5886 5888 5889 5890 5891 5892 5893 5894 5896 5897 5897 5898 5898 5898 5899 5900 5902 5903 5904 5905 5905 5906 5906 5907 5907 5906 5905 5905 5904 5903 5904 5904 5903 5902 5901 5899 5899 5898 5896 5894 5894 5895 5897 5898 5899 5900 5901
5831 5832 5832 5833 5834 5835 5836 5836 5838 5839 5840 5841 5842 5843 5845 5847 5848 5849 5850 5852 5854 5855 5857 5858 5860 5861 5862 5864 5865 5866 5868 5868 5870 5871 5872 5874 5876 5877 5879 5880 5882 5884 5885 5886 5887 5888 5890 5891 5893 5894 5895 5895 5896 5897 5897 5898 5899 5900 5902 5903 5904 5905 5905 5906 5906 5906 5906 5905 5905 5904 5903 5903 5904 5903 5903 5901 5900 5900 5899 5898 5895 5895 5896 5897 5897 5898 5899 5900
5829 5830 5830 5831 5832 5833 5834 5835 5836 5837 5838 5839 5840 5842 5843 5844 5845 5847 5848 5850 5852 5853 5855 5856 5857 5859 5860 5861 5863 5864 5865 5866 5867 5868 5870 5872 5873 5875 5876 5878 5879 5881 5882 5883 5884 5886 5888 5889 5890 5891 5892 5893 5895 5896 5897 5897 5898 5899 5901 5902 5903 5904 5905 5905 5905 5905 5905 5905 5904 5904 5903 5903 5904 5904 5903 5902 5900 5900 5900 5899 5897 5896 5896 5896 5897 5897 5899 5900
5827 5828 5829 5829 5830 5831 5832 5833 5834 5835 5836 5837 5838 5840 5840 5841 5843 5844 5846 5848 5849 5851 5852 5854 5855 5857 5858 5859 5860 5861 5862 5863 5864 5866 5868 5869 5871 5872 5873 5875 5877 5878 5879 5880 5882 5884 5886 5887 5887 5888 5890 5892 5894 5894 5895 5896 5897 5898 5900 5901 5902 5904 5904 5905 5905 5904 5905 5904 5904 5904 5903 5903 5904 5904 5903 5902 5901 5900 5900 5900 5899 5897 5897 5897 5897 5897 5898 5900
5825 5826 5827 5827 5829 5830 5830 5831 5832 5833 5834 5835 5837 5837 5838 5839 5841 5843 5844 5846 5847 5848 5850 5852 5853 5854 5855 5857 5858 5859 5861 5862 5863 5864 5866 5867 5868 5870 5871 5873 5874 5875 5877 5878 5880 5882 5882 5884 5885 5886 5889 5891 5892 5893 5894 5895 5896 5897 5898 5900 5901 5903 5904 5904 5904 5904 5904 5904 5904 5904 5903 5903 5904 5904 5904 5903 5901 5900 5900 5900 5900 5899 5898 5898 5898 5898 5899 5900
5823 5824 5824 5825 5827 5828 5828 5829 5830 5831 5833 5834 5835 5835 5837 5838 5840 5841 5843 5844 5845 5847 5848 5849 5850 5852 5853 5855 5856 5858 5859 5860 5861 5862 5863 5865 5866 5868 5869 5870 5872 5873 5875 5877 5878 5878 5879 5881 5883 5885 5887 5889 5890 5892 5893 5894 5895 5896 5898 5899 5900 5902 5903 5903 5904 5904 5905 5905 5904 5904 5903 5903 5903 5903 5904 5903 5902 5901 5900 5900 5900 5900 5899 5898 5899 5899 5900 5900
5820 5821 5822 5823 5825 5826 5826 5827 5828 5830 5831 5832 5833 5834 5835 5837 5838 5839 5841 5842 5843 5845 5846 5847 5849 5850 5852 5853 5854 5855 5857 5858 5859 5860 5861 5863 5864 5866 5867 5868 5870 5871 5873 5874 5875 5876 5877 5880 5882 5884 5885 5886 5888 5890 5892 5894 5895 5896 5897 5898 5899 5900 5902 5903 5903 5904 5904 5904 5904 5904 5904 5903 5903 5903 5904 5903 5903 5902 5901 5900 5900 5901 5900 5899 5899 5899 5900 5900
5817 5818 5820 5821 5823 5823 5824 5825 5827 5828 5830 5831 5832 5833 5834 5835 5836 5837 5839 5841 5842 5843 5844 5846 5847 5849 5850 5851 5852 5854 5855 5856 5857 5859 5859 5861 5862 5864 5865 5866 5867 5869 5870 5871 5872 5873 5875 5877 5879 5881 5882 5884 5887 5889 5892 5893 5894 5895 5896 5897 5898 5899 5901 5902 5902 5903 5903 5903 5903 5904 5904 5903 5903 5903 5903 5903 5903 5902 5901 5901 5900 5901 5901 5901 5900 5899 5900 5900
5815 5816 5818 5819 5820 5821 5822 5824 5825 5827 5828 5830 5830 5831 5832 5834 5835 5836 5838 5840 5841 5842 5843 5844 5846 5847 5848 5849 5851 5852 5854 5854 5856 5857 5858 5859 5860 5862 5863 5864 5865 5866 5868 5869 5870 5872 5874 5875 5877 5879 5881 5883 5886 5889 5891 5893 5894 5895 5895 5896 5897 5898 5900 5901 5902 5902 5902 5903 5903 5903 5904 5903 5903 5902 5903 5903 5903 5902 5901 5901 5900 5900 5901 5901 5901 5900 5900 5900
5813 5814 5816 5817 5818 5820 5821 5823 5824 5826 5827 5828 5829 5830 5832 5833 5834 5836 5837 5839 5840 5841 5842 5843 5844 5845 5847 5848 5849 5851 5852 5853 5854 5855 5856 5857 5859 5860 5861 5862 5863 5865 5866 5868 5870 5871 5873 5874 5876 5878 5880 5883 5886 5888 5890 5892 5893 5894 5895 5896 5897 5897 5898 5900 5901 5901 5901 5902 5903 5902 5903 5903 5902 5902 5902 5902 5902 5902 5902 5901 5901 5900 5901 5901 5901 5901 5900 5900
5811 5812 5814 5815 5816 5818 5820 5821 5823 5824 5826 5827 5828 5830 5831 5832 5834 5835 5836 5838 5839 5840 5841 5842 5843 5844 5846 5847 5848 5850 5851 5852 5853 5854 5855 5856 5857 5858 5859 5861 5862 5864 5866 5868 5868 5870 5871 5873 5874 5877 5880 5883 5885 5887 5889 5891 5891 5892 5894 5895 5895 5896 5897 5898 5900 5900 5901 5902 5902 5901 5902 5902 5902 5902 5902 5902 5902 5901 5901 5901 5901 5901 5901 5901 5901 5900 5900 5900
5810 5811 5812 5813 5815 5817 5819 5820 5822 5824 5825 5827 5828 5829 5830 5832 5833 5835 5836 5838 5838 5839 5840 5842 5843 5844 5845 5846 5847 5849 5850 5851 5852 5853 5854 5855 5856 5857 5858 5860 5861 5863 5865 5866 5866 5868 5870 5871 5874 5878 5881 5882 5883 5885 5887 5889 5890 5891 5892 5893 5894 5894 5895 5896 5898 5899 5900 5900 5900 5901 5901 5901 5902 5902 5901 5901 5901 5901 5901 5901 5901 5901 5901 5901 5900 5900 5900 5900
5809 5810 5811 5812 5814 5816 5818 5820 5822 5823 5825 5826 5827 5829 5830 5832 5833 5835 5836 5837 5838 5839 5840 5841 5842 5843 5844 5845 5846 5848 5849 5850 5852 5852 5853 5854 5855 5857 5858 5859 5861 5862 5863 5864 5865 5867 5869 5871 5875 5878 5880 5881 5882 5884 5886 5887 5888 5889 5890 5891 5892 5893 5893 5895 5897 5898 5899 5899 5900 5900 5900 5901 5901 5901 5901 5901 5901 5901 5900 5900 5901 5901 5901 5901 5900 5900 5900 5899
5808 5809 5810 5812 5813 5815 5817 5819 5821 5823 5824 5826 5827 5829 5831 5832 5833 5835 5836 5837 5838 5839 5840 5841 5842 5843 5844 5845 5846 5847 5849 5850 5851 5852 5852 5853 5854 5856 5857 5858 5859 5861 5862 5863 5864 5866 5869 5872 5875 5877 5878 5880 5882 5883 5885 5886 5887 5888 5889 5889 5890 5891 5892 5894 5896 5897 5898 5898 5899 5899 5900 5900 5901 5900 5900 5900 5900 5900 5900 5900 5900 5901 5900 5900 5900 5900 5899 5899
5808 5809 5810 5811 5813 5815 5817 5819 5821 5823 5825 5826 5828 5830 5831 5832 5834 5835 5836 5837 5838 5839 5840 5841 5842 5843 5843 5845 5846 5847 5848 5849 5850 5851 5852 5853 5854 5855 5856 5857 5858 5859 5861 5862 5863 5866 5869 5872 5874 5876 5878 5879 5881 5882 5884 5885 5885 5886 5887 5888 5889 5890 5892 5894 5895 5896 5897 5897 5898 5899 5900 5900 5900 5900 5899 5899 5899 5899 5899 5899 5900 5900 5900 5900 5900 5899 5899 5899
5809 5809 5810 5812 5813 5815 5817 5819 5821 5823 5825 5827 5829 5830 5831 5832 5834 5835 5836 5837 5838 5839 5840 5841 5842 5843 5844 5845 5846 5847 5848 5849 5850 5851 5852 5852 5853 5854 5856 5857 5858 5859 5860 5861 5863 5865 5868 5871 5873 5875 5876 5878 5880 5881 5882 5883 5884 5885 5885 5887 5888 5890 5892 5893 5894 5895 5896 5896 5898 5899 5899 5899 5899 5899 5899 5899 5899 5899 5898 5898 5899 5899 5900 5900 5899 5899 5899 5898
5809 5810 5811 5812 5814 5816 5818 5820 5822 5824 5826 5827 5829 5830 5832 5833 5834 5835 5836 5837 5838 5839 5841 5842 5843 5844 5844 5845 5846 5847 5848 5849 5850 5851 5851 5852 5853 5854 5855 5856 5857 5858 5860 5862 5863 5865 5867 5870 5872 5873 5875 5877 5878 5879 5880 5882 5883 5884 5885 5887 5888 5889 5891 5892 5893 5894 5895 5896 5897 5898 5899 5899 5899 5898 5898 5898 5898 5898 5898 5898 5898 5898 5899 5899 5899 5898 5898 5898
5811 5811 5812 5814 5815 5817 5819 5820 5822 5824 5826 5828 5830 5831 5833 5834 5835 5836 5837 5838 5839 5840 5841 5842 5843 5844 5845 5846 5846 5847 5848 5849 5850 5850 5851 5852 5853 5854 5855 5856 5856 5858 5860 5862 5864 5865 5867 5870 5871 5873 5875 5877 5877 5878 5879 5881 5882 5883 5885 5886 5887 5888 5890 5891 5892 5893 5894 5896 5897 5897 5898 5899 5898 5898 5898 5898 5898 5898 5898 5898 5898 5898 5898 5898 5898 5898 5898 5897
5812 5813 5814 5815 5816 5818 5820 5821 5823 5825 5827 5829 5831 5832 5834 5835 5836 5837 5838 5839 5840 5841 5842 5843 5844 5845 5846 5847 5848 5848 5849 5849 5850 5851 5851 5852 5853 5853 5854 5856 5856 5857 5859 5861 5863 5865 5867 5869 5872 5873 5875 5876 5876 5877 5879 5880 5882 5883 5884 5885 5886 5887 5889 5890 5891 5893 5894 5895 5896 5897 5898 5898 5898 5898 5897 5897 5897 5897 5897 5897 5897 5897 5897 5897 5897 5897 5897 5897
5813 5814 5815 5816 5818 5820 5821 5823 5825 5827 5829 5830 5832 5833 5835 5836 5837 5838 5839 5840 5841 5842 5843 5844 5845 5846 5847 5848 5849 5850 5850 5850 5851 5851 5852 5852 5853 5854 5854 5855 5857 5857 5858 5860 5862 5864 5867 5869 5871 5873 5874 5875 5876 5877 5879 5880 5881 5882 5882 5883 5885 5887 5888 5889 5891 5892 5893 5894 5895 5896 5897 5897 5897 5897 5896 5896 5896 5896 5896 5896 5896 5896 5896 5896 5896 5896 5896 5896
5814 5815 5817 5818 5820 5822 5823 5825 5827 5828 5830 5832 5833 5835 5836 5837 5838 5840 5841 5841 5842 5843 5844 5845 5845 5846 5848 5848 5850 5851 5851 5852 5852 5852 5853 5853 5854 5854 5855 5856 5857 5858 5859 5861 5862 5864 5866 5869 5871 5872 5873 5874 5876 5877 5878 5879 5880 5881 5882 5883 5884 5886 5887 5888 5889 5891 5892 5893 5894 5895 5896 5896 5896 5896 5896 5896 5896 5895 5895 5895 5895 5895 5895 5895 5895 5894 5894 5894
5815 5817 5819 5821 5822 5824 5826 5827 5829 5830 5832 5833 5834 5836 5837 5838 5839 5840 5841 5842 5843 5844 5845 5846 5846 5847 5848 5849 5850 5851 5852 5853 5853 5853 5853 5854 5854 5855 5856 5857 5859 5860 5861 5861 5863 5865 5867 5869 5871 5872 5873 5874 5876 5877 5878 5879 5880 5881 5882 5883 5884 5885 5886 5887 5889 5890 5891 5892 5893 5894 5895 5895 5895 5895 5895 5895 5895 5894 5894 5894 5894 5894 5894 5894 5894 5893 5893 5893
5817 5819 5821 5822 5824 5826 5828 5830 5831 5832 5833 5835 5836 5837 5838 5838 5840 5841 5842 5842 5843 5844 5845 5846 5847 5847 5849 5850 5851 5851 5852 5853 5853 5854 5854 5854 5855 5856 5856 5858 5859 5861 5862 5863 5864 5866 5868 5869 5870 5871 5873 5874 5875 5876 5877 5878 5880 5881 5882 5883 5884 5884 5885 5887 5888 5890 5890 5891 5892 5893 5894 5894 5894 5894 5894 5894 5893 5893 5893 5893 5893 5893 5893 5893 5893 5892 5892 5891
5818 5820 5822 5824 5826 5827 5829 5831 5833 5834 5835 5836 5837 5838 5839 5839 5840 5841 5842 5843 5844 5845 5845 5846 5847 5847 5849 5850 5851 5852 5852 5853 5854 5854 5855 5855 5856 5856 5857 5858 5859 5861 5863 5864 5865 5867 5868 5869 5870 5871 5873 5874 5875 5876 5877 5878 5879 5879 5881 5882 5882 5883 5884 5885 5887 5888 5889 5890 5891 5892 5893 5894 5894 5894 5893 5892 5892 5892 5892 5892 5892 5892 5892 5892 5891 5891 5890 5890
5819 5821 5823 5824 5826 5828 5830 5832 5834 5835 5836 5837 5838 5839 5839 5840 5841 5841 5842 5843 5844 5845 5846 5847 5847 5847 5849 5851 5852 5853 5854 5854 5855 5855 5856 5856 5857 5857 5857 5858 5859 5861 5862 5864 5865 5866 5867 5869 5870 5871 5872 5874 5876 5876 5877 5877 5878 5879 5880 5880 5881 5882 5883 5884 5885 5886 5887 5888 5890 5891 5892 5892 5892 5892 5892 5891 5891 5891 5891 5890 5891 5891 5890 5890 5890 5889 5889 5888
5820 5822 5824 5825 5827 5829 5831 5833 5835 5836 5837 5838 5839 5840 5840 5841 5841 5842 5842 5844 5845 5845 5846 5847 5847 5848 5850 5851 5852 5854 5855 5855 5856 5857 5857 5857 5858 5858 5859 5859 5860 5862 5863 5864 5865 5866 5867 5869 5870 5871 5873 5875 5876 5876 5876 5877 5878 5879 5879 5880 5881 5882 5883 5884 5884 5885 5886 5888 5889 5890 5891 5891 5891 5891 5891 5890 5890 5890 5889 5889 5889 5889 5889 5888 5888 5888 5887 5886
5821 5823 5825 5826 5828 5830 5831 5833 5835 5836 5837 5838 5839 5840 5841 5841 5842 5842 5843 5844 5845 5845 5846 5847 5848 5849 5851 5852 5853 5854 5855 5856 5857 5857 5857 5858 5858 5859 5860 5861 5861 5862 5863 5864 5865 5866 5867 5868 5869 5871 5873 5874 5874 5875 5875 5876 5877 5878 5879 5879 5881 5882 5882 5883 5884 5885 5886 5888 5888 5889 5890 5890 5890 5890 5889 5889 5889 5889 5888 5888 5888 5887 5886 5886 5886 5886 5885 5884
5822 5824 5825 5827 5829 5830 5832 5834 5835 5837 5838 5838 5839 5840 5841 5841 5842 5842 5843 5845 5845 5845 5846 5847 5848 5850 5851 5852 5853 5853 5854 5855 5856 5857 5857 5858 5859 5860 5861 5862 5862 5863 5864 5865 5865 5866 5866 5867 5868 5870 5871 5871 5872 5873 5874 5875 5876 5877 5878 5879 5880 5881 5882 5883 5884 5885 5887 5887 5888 5889 5889 5890 5889 5888 5887 5888 5888 5888 5887 5886 5886 5885 5884 5884 5884 5884 5883 5882
5822 5824 5826 5827 5829 5831 5833 5834 5836 5837 5838 5838 5839 5840 5841 5841 5842 5842 5843 5845 5846 5846 5846 5847 5848 5850 5851 5852 5853 5853 5854 5855 5856 5856 5857 5858 5859 5860 5861 5862 5862 5863 5864 5864 5864 5865 5865 5866 5867 5868 5869 5869 5870 5871 5872 5873 5875 5876 5878 5879 5880 5881 5882 5883 5884 5886 5886 5886 5887 5888 5889 5889 5888 5886 5887 5887 5887 5887 5886 5885 5884 5883 5882 5882 5882 5882 5881 5880
5822 5824 5825 5827 5829 5831 5833 5834 5836 5836 5838 5838 5839 5840 5841 5841 5842 5843 5844 5845 5846 5846 5847 5847 5848 5850 5851 5852 5853 5854 5854 5854 5855 5856 5857 5858 5859 5860 5860 5861 5862 5862 5862 5863 5863 5863 5864 5865 5866 5867 5868 5868 5869 5869 5870 5872 5873 5875 5877 5878 5879 5880 5881 5882 5884 5885 5885 5885 5887 5887 5887 5887 5886 5886 5887 5887 5886 5886 5885 5883 5882 5881 5880 5880 5880 5880 5879 5878
5822 5824 5825 5826 5828 5830 5832 5834 5835 5836 5837 5838 5839 5840 5841 5841 5842 5843 5844 5845 5846 5847 5847 5847 5848 5849 5851 5852 5853 5854 5854 5855 5856 5856 5857 5858 5858 5859 5860 5860 5861 5861 5862 5862 5862 5862 5863 5863 5864 5865 5866 5867 5868 5869 5870 5871 5873 5875 5876 5878 5879 5880 5880 5881 5883 5883 5884 5884 5885 5886 5886 5886 5886 5886 5886 5885 5885 5885 5883 5882 5880 5879 5878 5878 5878 5878 5877 5876
5822 5823 5825 5826 5828 5829 5831 5833 5834 5836 5837 5838 5839 5839 5840 5841 5842 5843 5843 5844 5845 5846 5848 5848 5848 5848 5850 5851 5853 5854 5854 5855 5856 5856 5857 5857 5858 5859 5859 5860 5861 5861 5862 5862 5861 5861 5862 5862 5863 5865 5865 5866 5867 5868 5869 5871 5873 5874 5875 5876 5878 5879 5879 5880 5881 5882 5883 5883 5884 5885 5885 5885 5886 5885 5884 5884 5884 5883 5881 5880 5879 5878 5876 5876 5876 5875 5875 5874
5822 5823 5824 5826 5827 5829 5830 5832 5833 5835 5836 5837 5838 5839 5840 5841 5841 5842 5843 5844 5845 5846 5847 5848 5848 5849 5849 5850 5852 5853 5854 5854 5855 5856 5856 5857 5857 5858 5858 5859 5860 5860 5861 5861 5861 5860 5861 5861 5862 5864 5865 5865 5866 5867 5868 5870 5872 5873 5874 5875 5876 5878 5879 5879 5880 5881 5882 5882 5883 5884 5884 5884 5884 5883 5882 5883 5882 5881 5880 5879 5877 5876 5875 5874 5873 5873 5872 5872
5822 5823 5824 5826 5827 5828 5829 5831 5832 5833 5835 5836 5837 5838 5839 5839 5840 5841 5843 5843 5844 5845 5846 5847 5848 5848 5849 5849 5850 5851 5852 5853 5854 5854 5855 5855 5856 5857 5857 5857 5858 5858 5859 5859 5860 5860 5860 5860 5860 5862 5864 5864 5865 5866 5867 5869 5871 5872 5873 5874 5875 5876 5877 5878 5879 5879 5880 5881 5882 5882 5882 5882 5882 5881 5881 5881 5881 5880 5879 5877 5876 5874 5873 5872 5872 5871 5870 5870